Location: Claflin County Park
(44.8478°N, 87.5507°W)
Time: 09:50:14
(UTC+00:00)

Cosmos 1484 Rocket - Pass Details

Date: 10 December 2025
Orbit: 438 x 471 km, 97.6° (Epoch: 21 January)

Event Time Altitude Azimuth Distance (km) Brightness Sun altitude
Rises 11:04:25 0° 23° (NNE) 2,478 6.3 -22.6°
Reaches altitude 10° 11:06:40 10° 35° (NE) 1,592 5.5 -22.2°
Maximum altitude 11:09:40 28° 97° (E) 870 4.5 -21.7°
Drops below altitude 10° 11:12:36 10° 158° (SSE) 1,562 5.5 -21.2°
Sets 11:14:47 0° 170° (S) 2,422 6.4 -20.8°
